Time,TemperatureF,DewpointF,PressureIn,WindDirection,WindDirectionDegrees,WindSpeedMPH,WindSpeedGustMPH,Humidity,HourlyPrecipIn,Conditions,Clouds,dailyrainin,SoftwareType,DateUTC
2013-02-08 00:01:00,5.7,-11.6,31.69,SW,225,0.0,0.0,44,0.00,,,0.00,meteohub,2013-02-08 07:01:00,
2013-02-08 00:06:00,5.4,-11.7,31.69,SW,225,0.0,0.0,44,0.00,,,0.00,meteohub,2013-02-08 07:06:00,
2013-02-08 00:12:00,5.4,-11.7,31.69,SE,135,0.0,0.0,44,0.00,,,0.00,meteohub,2013-02-08 07:12:00,
2013-02-08 00:17:00,5.4,-11.4,31.69,SW,225,0.0,0.0,45,0.00,,,0.00,meteohub,2013-02-08 07:17:00,
2013-02-08 00:22:00,5.4,-11.4,31.69,SE,135,0.0,0.0,45,0.00,,,0.00,meteohub,2013-02-08 07:22:00,
2013-02-08 00:27:00,5.2,-11.6,31.69,SW,225,0.0,0.0,45,0.00,,,0.00,meteohub,2013-02-08 07:27:00,
2013-02-08 00:32:00,5.2,-11.6,31.69,SW,225,0.0,0.0,45,0.00,,,0.00,meteohub,2013-02-08 07:32:00,
2013-02-08 00:37:00,5.2,-11.6,31.68,SW,225,0.0,0.0,45,0.00,,,0.00,meteohub,2013-02-08 07:37:00,
2013-02-08 00:42:00,5.0,-11.7,31.68,South,180,0.0,0.0,45,0.00,,,0.00,meteohub,2013-02-08 07:42:00,
2013-02-08 00:47:00,4.8,-11.4,31.68,SW,225,0.0,0.0,46,0.00,,,0.00,meteohub,2013-02-08 07:47:00,
2013-02-08 00:52:00,4.8,-11.0,31.68,SW,225,0.0,0.0,47,0.00,,,0.00,meteohub,2013-02-08 07:52:00,
2013-02-08 00:57:00,5.0,-11.2,31.68,West,270,0.0,0.0,46,0.00,,,0.00,meteohub,2013-02-08 07:57:00,
2013-02-08 01:02:00,4.8,-11.0,31.68,West,270,0.0,0.0,47,0.00,,,0.00,meteohub,2013-02-08 08:02:00,
2013-02-08 01:07:00,4.8,-11.0,31.68,West,270,0.0,0.0,47,0.00,,,0.00,meteohub,2013-02-08 08:07:00,
2013-02-08 01:12:00,4.3,-11.6,31.68,South,180,0.0,0.0,47,0.00,,,0.00,meteohub,2013-02-08 08:12:00,
2013-02-08 01:17:00,4.1,-11.7,31.67,North,0,0.0,0.0,47,0.00,,,0.00,meteohub,2013-02-08 08:17:00,
2013-02-08 01:22:00,4.1,-11.7,31.68,West,270,0.0,0.0,47,0.00,,,0.00,meteohub,2013-02-08 08:22:00,
2013-02-08 01:27:00,3.7,-11.6,31.67,SE,135,0.0,0.0,48,0.00,,,0.00,meteohub,2013-02-08 08:27:00,
2013-02-08 01:32:00,3.6,-11.7,31.67,North,0,0.0,0.0,48,0.00,,,0.00,meteohub,2013-02-08 08:32:00,
2013-02-08 01:37:00,3.6,-11.4,31.66,West,270,0.0,2.0,49,0.00,,,0.00,meteohub,2013-02-08 08:37:00,
2013-02-08 01:42:00,3.6,-11.4,31.66,SW,225,0.0,2.0,49,0.00,,,0.00,meteohub,2013-02-08 08:42:00,
2013-02-08 01:47:00,3.6,-11.4,31.67,SW,225,0.0,2.0,49,0.00,,,0.00,meteohub,2013-02-08 08:47:00,
2013-02-08 01:52:00,3.4,-11.0,31.67,North,0,0.0,2.0,50,0.00,,,0.00,meteohub,2013-02-08 08:52:00,
2013-02-08 01:57:00,3.6,-10.8,31.67,NW,315,0.0,0.0,50,0.00,,,0.00,meteohub,2013-02-08 08:57:00,
2013-02-08 02:02:00,3.7,-10.8,31.67,NW,315,0.0,0.0,50,0.00,,,0.00,meteohub,2013-02-08 09:02:00,
2013-02-08 02:07:00,3.4,-11.6,31.66,SW,225,0.0,2.0,49,0.00,,,0.00,meteohub,2013-02-08 09:07:00,
2013-02-08 02:12:00,3.4,-11.6,31.66,NE,45,0.0,4.0,49,0.00,,,0.00,meteohub,2013-02-08 09:12:00,
2013-02-08 02:17:00,3.0,-11.4,31.66,SW,225,0.0,4.0,50,0.00,,,0.00,meteohub,2013-02-08 09:17:00,
2013-02-08 02:22:00,2.3,-12.1,31.66,SW,225,0.0,0.0,50,0.00,,,0.00,meteohub,2013-02-08 09:22:00,
2013-02-08 02:27:00,1.8,-12.6,31.66,South,180,0.0,0.0,50,0.00,,,0.00,meteohub,2013-02-08 09:27:00,
2013-02-08 02:32:00,1.4,-13.0,31.65,West,270,0.0,0.0,50,0.00,,,0.00,meteohub,2013-02-08 09:32:00,
2013-02-08 02:37:00,1.4,-12.5,31.65,North,0,0.0,0.0,51,0.00,,,0.00,meteohub,2013-02-08 09:37:00,
2013-02-08 02:42:00,1.8,-11.7,31.65,South,180,0.0,2.0,52,0.00,,,0.00,meteohub,2013-02-08 09:42:00,
2013-02-08 02:47:00,1.9,-11.6,31.65,NW,315,0.0,2.0,52,0.00,,,0.00,meteohub,2013-02-08 09:47:00,
2013-02-08 02:52:00,1.9,-11.6,31.65,SW,225,0.0,2.0,52,0.00,,,0.00,meteohub,2013-02-08 09:52:00,
2013-02-08 02:57:00,1.6,-11.9,31.65,SW,225,0.0,0.0,52,0.00,,,0.00,meteohub,2013-02-08 09:57:00,
2013-02-08 03:02:00,1.6,-11.9,31.65,NW,315,0.0,0.0,52,0.00,,,0.00,meteohub,2013-02-08 10:02:00,
2013-02-08 03:07:00,1.6,-11.9,31.65,NW,315,0.0,0.0,52,0.00,,,0.00,meteohub,2013-02-08 10:07:00,
2013-02-08 03:13:00,1.4,-11.7,31.65,SW,225,0.0,0.0,53,0.00,,,0.00,meteohub,2013-02-08 10:13:00,
2013-02-08 03:18:00,1.2,-13.2,31.65,South,180,0.0,0.0,50,0.00,,,0.00,meteohub,2013-02-08 10:18:00,
2013-02-08 03:23:00,1.2,-13.2,31.65,SW,225,0.0,0.0,50,0.00,,,0.00,meteohub,2013-02-08 10:23:00,
2013-02-08 03:29:00,1.0,-13.2,31.65,NE,45,0.0,2.0,50,0.00,,,0.00,meteohub,2013-02-08 10:29:00,
2013-02-08 03:34:00,1.2,-12.6,31.65,West,270,0.0,2.0,51,0.00,,,0.00,meteohub,2013-02-08 10:34:00,
2013-02-08 03:39:00,1.4,-11.0,31.65,SW,225,0.0,2.0,55,0.00,,,0.00,meteohub,2013-02-08 10:39:00,
2013-02-08 03:45:00,1.4,-11.0,31.65,NE,45,0.0,2.0,55,0.00,,,0.00,meteohub,2013-02-08 10:45:00,
2013-02-08 03:50:00,1.2,-12.6,31.65,NE,45,0.0,0.0,51,0.00,,,0.00,meteohub,2013-02-08 10:50:00,
2013-02-08 03:55:00,1.4,-11.0,31.65,SW,225,0.0,0.0,55,0.00,,,0.00,meteohub,2013-02-08 10:55:00,
2013-02-08 04:01:00,1.2,-12.6,31.64,West,270,0.0,0.0,51,0.00,,,0.00,meteohub,2013-02-08 11:01:00,
2013-02-08 04:06:00,1.0,-12.8,31.64,West,270,0.0,0.0,51,0.00,,,0.00,meteohub,2013-02-08 11:06:00,
2013-02-08 04:12:00,0.9,-13.0,31.64,SE,135,0.0,0.0,51,0.00,,,0.00,meteohub,2013-02-08 11:12:00,
2013-02-08 04:17:00,0.9,-13.0,31.64,West,270,0.0,0.0,51,0.00,,,0.00,meteohub,2013-02-08 11:17:00,
2013-02-08 04:22:00,0.9,-12.6,31.64,West,270,0.0,0.0,52,0.00,,,0.00,meteohub,2013-02-08 11:22:00,
2013-02-08 04:27:00,0.9,-12.6,31.63,SW,225,0.0,0.0,52,0.00,,,0.00,meteohub,2013-02-08 11:27:00,
2013-02-08 04:32:00,0.9,-12.6,31.63,SE,135,0.0,0.0,52,0.00,,,0.00,meteohub,2013-02-08 11:32:00,
2013-02-08 04:37:00,0.9,-12.6,31.63,South,180,0.0,0.0,52,0.00,,,0.00,meteohub,2013-02-08 11:37:00,
2013-02-08 04:42:00,1.0,-12.5,31.63,NW,315,0.0,0.0,52,0.00,,,0.00,meteohub,2013-02-08 11:42:00,
2013-02-08 04:47:00,1.6,-10.5,31.63,East,90,0.0,0.0,56,0.00,,,0.00,meteohub,2013-02-08 11:47:00,
2013-02-08 04:52:00,1.4,-10.7,31.63,South,180,0.0,0.0,56,0.00,,,0.00,meteohub,2013-02-08 11:52:00,
2013-02-08 04:57:00,1.2,-12.3,31.63,SW,225,0.0,0.0,52,0.00,,,0.00,meteohub,2013-02-08 11:57:00,
2013-02-08 05:02:00,1.0,-12.5,31.63,West,270,0.0,0.0,52,0.00,,,0.00,meteohub,2013-02-08 12:02:00,
2013-02-08 05:07:00,1.0,-12.5,31.63,West,270,0.0,0.0,52,0.00,,,0.00,meteohub,2013-02-08 12:07:00,
2013-02-08 05:12:00,1.6,-10.1,31.63,South,180,0.0,0.0,57,0.00,,,0.00,meteohub,2013-02-08 12:12:00,
2013-02-08 05:17:00,1.6,-10.1,31.62,North,0,0.0,0.0,57,0.00,,,0.00,meteohub,2013-02-08 12:17:00,
2013-02-08 05:22:00,1.8,-9.9,31.63,North,0,0.0,0.0,57,0.00,,,0.00,meteohub,2013-02-08 12:22:00,
2013-02-08 05:27:00,1.4,-10.7,31.63,SW,225,0.0,0.0,56,0.00,,,0.00,meteohub,2013-02-08 12:27:00,
2013-02-08 05:32:00,0.7,-12.8,31.63,West,270,5.0,0.0,52,0.00,,,0.00,meteohub,2013-02-08 12:32:00,
2013-02-08 05:37:00,0.1,-13.4,31.63,West,270,0.0,5.0,52,0.00,,,0.00,meteohub,2013-02-08 12:37:00,
2013-02-08 05:42:00,0.1,-13.4,31.63,SE,135,0.0,5.0,52,0.00,,,0.00,meteohub,2013-02-08 12:42:00,
2013-02-08 05:47:00,0.3,-12.8,31.63,SW,225,0.0,5.0,53,0.00,,,0.00,meteohub,2013-02-08 12:47:00,
2013-02-08 05:52:00,0.3,-12.8,31.63,SW,225,0.0,4.0,53,0.00,,,0.00,meteohub,2013-02-08 12:52:00,
2013-02-08 05:57:00,0.3,-12.8,31.63,East,90,0.0,4.0,53,0.00,,,0.00,meteohub,2013-02-08 12:57:00,
2013-02-08 06:02:00,0.5,-12.6,31.63,North,0,0.0,0.0,53,0.00,,,0.00,meteohub,2013-02-08 13:02:00,
2013-02-08 06:07:00,0.3,-12.8,31.63,SE,135,0.0,0.0,53,0.00,,,0.00,meteohub,2013-02-08 13:07:00,
2013-02-08 06:12:00,0.0,-13.2,31.63,South,180,0.0,0.0,53,0.00,,,0.00,meteohub,2013-02-08 13:12:00,
2013-02-08 06:17:00,0.0,-13.2,31.63,SW,225,0.0,0.0,53,0.00,,,0.00,meteohub,2013-02-08 13:17:00,
2013-02-08 06:23:00,0.3,-12.8,31.63,SW,225,0.0,0.0,53,0.00,,,0.00,meteohub,2013-02-08 13:23:00,
2013-02-08 06:29:00,1.2,-11.6,31.63,SW,225,0.0,0.0,54,0.00,,,0.00,meteohub,2013-02-08 13:29:00,
2013-02-08 06:34:00,1.6,-9.8,31.63,SW,225,0.0,0.0,58,0.00,,,0.00,meteohub,2013-02-08 13:34:00,
2013-02-08 06:40:00,2.5,-8.5,31.63,South,180,0.0,0.0,59,0.00,,,0.00,meteohub,2013-02-08 13:40:00,
2013-02-08 06:45:00,2.8,-8.3,31.62,South,180,0.0,0.0,59,0.00,,,0.00,meteohub,2013-02-08 13:45:00,
2013-02-08 06:51:00,2.8,-8.3,31.62,South,180,0.0,0.0,59,0.00,,,0.00,meteohub,2013-02-08 13:51:00,
2013-02-08 06:56:00,3.0,-8.1,31.62,West,270,0.0,0.0,59,0.00,,,0.00,meteohub,2013-02-08 13:56:00,
2013-02-08 07:02:00,3.2,-8.3,31.62,NE,45,0.0,0.0,58,0.00,,,0.00,meteohub,2013-02-08 14:02:00,
2013-02-08 07:07:00,3.2,-8.3,31.61,NE,45,0.0,0.0,58,0.00,,,0.00,meteohub,2013-02-08 14:07:00,
2013-02-08 07:12:00,3.7,-7.8,31.61,SE,135,0.0,0.0,58,0.00,,,0.00,meteohub,2013-02-08 14:12:00,
2013-02-08 07:18:00,3.4,-8.5,31.62,SW,225,0.0,0.0,57,0.00,,,0.00,meteohub,2013-02-08 14:18:00,
2013-02-08 07:23:00,3.0,-8.7,31.61,South,180,0.0,0.0,57,0.00,,,0.00,meteohub,2013-02-08 14:23:00,
2013-02-08 07:28:00,2.8,-8.9,31.61,West,270,0.0,0.0,57,0.00,,,0.00,meteohub,2013-02-08 14:28:00,
2013-02-08 07:34:00,2.8,-8.9,31.61,South,180,0.0,0.0,57,0.00,,,0.00,meteohub,2013-02-08 14:34:00,
2013-02-08 07:39:00,2.8,-8.9,31.61,SW,225,0.0,0.0,57,0.00,,,0.00,meteohub,2013-02-08 14:39:00,
2013-02-08 07:45:00,3.2,-9.0,31.61,SW,225,0.0,0.0,56,0.00,,,0.00,meteohub,2013-02-08 14:45:00,
2013-02-08 07:50:00,3.6,-8.7,31.61,SW,225,0.0,0.0,56,0.00,,,0.00,meteohub,2013-02-08 14:50:00,
2013-02-08 07:55:00,4.1,-8.1,31.60,West,270,0.0,0.0,56,0.00,,,0.00,meteohub,2013-02-08 14:55:00,
2013-02-08 08:00:00,5.0,-7.6,31.61,South,180,0.0,0.0,55,0.00,,,0.00,meteohub,2013-02-08 15:00:00,
2013-02-08 08:06:00,5.5,-7.1,31.61,NW,315,0.0,0.0,55,0.00,,,0.00,meteohub,2013-02-08 15:06:00,
2013-02-08 08:11:00,6.4,-6.3,31.60,South,180,0.0,0.0,55,0.00,,,0.00,meteohub,2013-02-08 15:11:00,
2013-02-08 08:16:00,7.3,-5.8,31.60,West,270,0.0,0.0,54,0.00,,,0.00,meteohub,2013-02-08 15:16:00,
2013-02-08 08:21:00,8.2,-4.9,31.60,West,270,0.0,0.0,54,0.00,,,0.00,meteohub,2013-02-08 15:21:00,
2013-02-08 08:27:00,9.5,-4.2,31.60,West,270,0.0,0.0,53,0.00,,,0.00,meteohub,2013-02-08 15:27:00,
2013-02-08 08:32:00,11.8,-0.4,31.59,SE,135,0.0,0.0,57,0.00,,,0.00,meteohub,2013-02-08 15:32:00,
2013-02-08 08:37:00,13.6,0.9,31.59,SE,135,0.0,2.0,56,0.00,,,0.00,meteohub,2013-02-08 15:37:00,
2013-02-08 08:42:00,14.2,0.5,31.59,NE,45,0.0,4.0,54,0.00,,,0.00,meteohub,2013-02-08 15:42:00,
2013-02-08 08:47:00,13.6,0.1,31.59,East,90,0.0,4.0,54,0.00,,,0.00,meteohub,2013-02-08 15:47:00,
2013-02-08 08:52:00,12.6,-2.2,31.59,North,0,0.0,4.0,51,0.00,,,0.00,meteohub,2013-02-08 15:52:00,
2013-02-08 08:58:00,11.7,-2.9,31.59,ESE,113,0.0,0.0,51,0.00,,,0.00,meteohub,2013-02-08 15:58:00,
2013-02-08 09:03:00,11.8,-2.7,31.59,SE,135,0.0,0.0,51,0.00,,,0.00,meteohub,2013-02-08 16:03:00,
2013-02-08 09:09:00,14.4,0.0,31.59,East,90,4.0,0.0,52,0.00,,,0.00,meteohub,2013-02-08 16:09:00,
2013-02-08 09:14:00,15.3,0.0,31.59,NW,315,0.0,0.0,50,0.00,,,0.00,meteohub,2013-02-08 16:14:00,
2013-02-08 09:19:00,15.4,-0.8,31.58,SW,225,0.0,4.0,48,0.00,,,0.00,meteohub,2013-02-08 16:19:00,
2013-02-08 09:25:00,16.3,0.1,31.58,SE,135,3.0,3.0,48,0.00,,,0.00,meteohub,2013-02-08 16:25:00,
2013-02-08 09:31:00,18.5,3.4,31.58,SSE,158,7.0,7.0,51,0.00,,,0.00,meteohub,2013-02-08 16:31:00,
2013-02-08 09:36:00,21.4,7.7,31.58,SE,135,5.0,8.0,55,0.00,,,0.00,meteohub,2013-02-08 16:36:00,
2013-02-08 09:42:00,24.1,9.9,31.58,East,90,5.0,8.0,54,0.00,,,0.00,meteohub,2013-02-08 16:42:00,
2013-02-08 09:47:00,25.7,10.0,31.57,SE,135,4.0,10.0,51,0.00,,,0.00,meteohub,2013-02-08 16:47:00,
2013-02-08 09:52:00,27.3,9.7,31.57,SE,135,5.0,10.0,47,0.00,,,0.00,meteohub,2013-02-08 16:52:00,
2013-02-08 09:57:00,28.6,12.4,31.57,SE,135,8.0,10.0,50,0.00,,,0.00,meteohub,2013-02-08 16:57:00,
2013-02-08 10:02:00,29.7,12.4,31.57,SE,135,7.0,8.0,48,0.00,,,0.00,meteohub,2013-02-08 17:02:00,
2013-02-08 10:08:00,30.0,12.2,31.57,SE,135,6.0,8.0,47,0.00,,,0.00,meteohub,2013-02-08 17:08:00,
2013-02-08 10:14:00,30.7,11.8,31.57,East,90,7.0,8.0,45,0.00,,,0.00,meteohub,2013-02-08 17:14:00,
2013-02-08 10:20:00,31.5,12.6,31.57,East,90,7.0,8.0,45,0.00,,,0.00,meteohub,2013-02-08 17:20:00,
2013-02-08 10:25:00,31.8,12.9,31.56,East,90,7.0,11.0,45,0.00,,,0.00,meteohub,2013-02-08 17:25:00,
2013-02-08 10:30:00,32.2,12.2,31.56,SE,135,6.0,11.0,43,0.00,,,0.00,meteohub,2013-02-08 17:30:00,
2013-02-08 10:36:00,32.5,12.6,31.56,South,180,7.0,11.0,43,0.00,,,0.00,meteohub,2013-02-08 17:36:00,
2013-02-08 10:41:00,32.2,12.2,31.56,East,90,6.0,11.0,43,0.00,,,0.00,meteohub,2013-02-08 17:41:00,
2013-02-08 10:47:00,32.2,12.2,31.56,SE,135,5.0,10.0,43,0.00,,,0.00,meteohub,2013-02-08 17:47:00,
2013-02-08 10:52:00,31.5,12.0,31.56,NE,45,5.0,10.0,44,0.00,,,0.00,meteohub,2013-02-08 17:52:00,
2013-02-08 10:57:00,32.0,12.6,31.56,NE,45,7.0,11.0,44,0.00,,,0.00,meteohub,2013-02-08 17:57:00,
2013-02-08 11:02:00,32.2,12.2,31.55,SE,135,6.0,11.0,43,0.00,,,0.00,meteohub,2013-02-08 18:02:00,
2013-02-08 11:07:00,32.2,12.2,31.55,SE,135,6.0,10.0,43,0.00,,,0.00,meteohub,2013-02-08 18:07:00,
2013-02-08 11:12:00,34.7,14.0,31.55,East,90,7.0,10.0,42,0.00,,,0.00,meteohub,2013-02-08 18:12:00,
2013-02-08 11:18:00,36.0,13.5,31.55,NE,45,9.0,9.0,39,0.00,,,0.00,meteohub,2013-02-08 18:18:00,
2013-02-08 11:23:00,35.6,11.3,31.54,SE,135,10.0,10.0,36,0.00,,,0.00,meteohub,2013-02-08 18:23:00,
2013-02-08 11:28:00,36.3,11.8,31.54,East,90,5.0,10.0,36,0.00,,,0.00,meteohub,2013-02-08 18:28:00,
2013-02-08 11:34:00,36.7,10.9,31.54,East,90,10.0,10.0,34,0.00,,,0.00,meteohub,2013-02-08 18:34:00,
2013-02-08 11:41:00,37.0,13.8,31.54,NE,45,15.0,15.0,38,0.00,,,0.00,meteohub,2013-02-08 18:41:00,
2013-02-08 11:46:00,35.6,14.2,31.53,East,90,14.0,16.0,41,0.00,,,0.00,meteohub,2013-02-08 18:46:00,
2013-02-08 11:52:00,35.4,14.5,31.53,ESE,113,11.0,17.0,42,0.00,,,0.00,meteohub,2013-02-08 18:52:00,
2013-02-08 11:57:00,35.8,14.4,31.52,ENE,68,11.0,17.0,41,0.00,,,0.00,meteohub,2013-02-08 18:57:00,
2013-02-08 12:02:00,37.2,16.2,31.53,East,90,10.0,14.0,42,0.00,,,0.00,meteohub,2013-02-08 19:02:00,
2013-02-08 12:07:00,37.8,17.8,31.52,SE,135,8.0,14.0,44,0.00,,,0.00,meteohub,2013-02-08 19:07:00,
2013-02-08 12:13:00,37.8,17.2,31.52,East,90,13.0,16.0,43,0.00,,,0.00,meteohub,2013-02-08 19:13:00,
2013-02-08 12:18:00,37.9,18.5,31.52,NE,45,8.0,16.0,45,0.00,,,0.00,meteohub,2013-02-08 19:18:00,
2013-02-08 12:23:00,38.7,19.2,31.52,SE,135,9.0,16.0,45,0.00,,,0.00,meteohub,2013-02-08 19:23:00,
2013-02-08 12:29:00,39.6,18.3,31.51,ENE,68,13.0,16.0,42,0.00,,,0.00,meteohub,2013-02-08 19:29:00,
2013-02-08 12:35:00,39.4,17.6,31.51,East,90,7.0,16.0,41,0.00,,,0.00,meteohub,2013-02-08 19:35:00,
2013-02-08 12:40:00,38.5,15.6,31.50,NW,315,7.0,16.0,39,0.00,,,0.00,meteohub,2013-02-08 19:40:00,
2013-02-08 12:45:00,39.7,15.6,31.50,NE,45,11.0,16.0,37,0.00,,,0.00,meteohub,2013-02-08 19:45:00,
2013-02-08 12:51:00,40.6,15.1,31.50,SW,225,4.0,15.0,35,0.00,,,0.00,meteohub,2013-02-08 19:51:00,
2013-02-08 12:56:00,41.4,10.8,31.49,NNW,338,4.0,15.0,28,0.00,,,0.00,meteohub,2013-02-08 19:56:00,
2013-02-08 13:02:00,41.7,10.2,31.49,South,180,3.0,11.0,27,0.00,,,0.00,meteohub,2013-02-08 20:02:00,
2013-02-08 13:07:00,41.7,10.2,31.48,South,180,3.0,9.0,27,0.00,,,0.00,meteohub,2013-02-08 20:07:00,
2013-02-08 13:12:00,41.4,8.2,31.48,ESE,113,8.0,13.0,25,0.00,,,0.00,meteohub,2013-02-08 20:12:00,
2013-02-08 13:18:00,41.2,9.0,31.47,West,270,9.0,13.0,26,0.00,,,0.00,meteohub,2013-02-08 20:18:00,
2013-02-08 13:24:00,40.1,7.9,31.47,South,180,11.0,13.0,26,0.00,,,0.00,meteohub,2013-02-08 20:24:00,
2013-02-08 13:29:00,39.2,7.2,31.47,East,90,17.0,20.0,26,0.00,,,0.00,meteohub,2013-02-08 20:29:00,
2013-02-08 13:34:00,37.9,7.0,31.47,SE,135,21.0,21.0,27,0.00,,,0.00,meteohub,2013-02-08 20:34:00,
2013-02-08 13:39:00,37.4,7.3,31.47,ENE,68,5.0,20.0,28,0.00,,,0.00,meteohub,2013-02-08 20:39:00,
2013-02-08 13:45:00,36.9,9.7,31.47,SSW,203,7.0,21.0,32,0.00,,,0.00,meteohub,2013-02-08 20:45:00,
2013-02-08 13:50:00,36.3,11.8,31.47,South,180,4.0,21.0,36,0.00,,,0.00,meteohub,2013-02-08 20:50:00,
2013-02-08 13:56:00,36.5,13.3,31.47,South,180,10.0,21.0,38,0.00,,,0.00,meteohub,2013-02-08 20:56:00,
2013-02-08 14:01:00,36.1,13.6,31.47,South,180,8.0,15.0,39,0.00,,,0.00,meteohub,2013-02-08 21:01:00,
2013-02-08 14:07:00,35.4,14.5,31.46,East,90,16.0,18.0,42,0.00,,,0.00,meteohub,2013-02-08 21:07:00,
2013-02-08 14:12:00,34.7,14.0,31.46,SE,135,15.0,20.0,42,0.00,,,0.00,meteohub,2013-02-08 21:12:00,
2013-02-08 14:17:00,34.3,13.6,31.46,NE,45,10.0,20.0,42,0.00,,,0.00,meteohub,2013-02-08 21:17:00,
2013-02-08 14:22:00,34.9,14.2,31.47,East,90,10.0,20.0,42,0.00,,,0.00,meteohub,2013-02-08 21:22:00,
2013-02-08 14:27:00,34.7,14.0,31.46,South,180,10.0,15.0,42,0.00,,,0.00,meteohub,2013-02-08 21:27:00,
2013-02-08 14:32:00,34.2,13.5,31.46,SE,135,8.0,12.0,42,0.00,,,0.00,meteohub,2013-02-08 21:32:00,
2013-02-08 14:38:00,34.9,14.7,31.46,SE,135,8.0,14.0,43,0.00,,,0.00,meteohub,2013-02-08 21:38:00,
2013-02-08 14:44:00,34.3,13.6,31.46,SE,135,11.0,14.0,42,0.00,,,0.00,meteohub,2013-02-08 21:44:00,
2013-02-08 14:49:00,34.5,13.8,31.46,SE,135,8.0,15.0,42,0.00,,,0.00,meteohub,2013-02-08 21:49:00,
2013-02-08 14:54:00,34.5,12.7,31.46,NE,45,11.0,15.0,40,0.00,,,0.00,meteohub,2013-02-08 21:54:00,
2013-02-08 15:00:00,33.4,13.3,31.46,SE,135,13.0,17.0,43,0.00,,,0.00,meteohub,2013-02-08 22:00:00,
2013-02-08 15:05:00,33.4,13.3,31.46,SE,135,13.0,17.0,43,0.00,,,0.00,meteohub,2013-02-08 22:05:00,
2013-02-08 15:10:00,35.8,14.4,31.45,SE,135,6.0,13.0,41,0.00,,,0.00,meteohub,2013-02-08 22:10:00,
2013-02-08 15:16:00,36.5,13.3,31.45,SSE,158,14.0,14.0,38,0.00,,,0.00,meteohub,2013-02-08 22:16:00,
2013-02-08 15:21:00,36.1,11.1,31.45,SE,135,12.0,15.0,35,0.00,,,0.00,meteohub,2013-02-08 22:21:00,
2013-02-08 15:27:00,36.0,9.0,31.45,ESE,113,8.0,15.0,32,0.00,,,0.00,meteohub,2013-02-08 22:27:00,
2013-02-08 15:32:00,36.0,8.2,31.45,NE,45,6.0,15.0,31,0.00,,,0.00,meteohub,2013-02-08 22:32:00,
2013-02-08 15:37:00,34.9,8.1,31.45,East,90,8.0,15.0,32,0.00,,,0.00,meteohub,2013-02-08 22:37:00,
2013-02-08 15:43:00,34.0,7.9,31.45,SW,225,8.0,14.0,33,0.00,,,0.00,meteohub,2013-02-08 22:43:00,
2013-02-08 15:48:00,33.4,7.3,31.45,West,270,6.0,14.0,33,0.00,,,0.00,meteohub,2013-02-08 22:48:00,
2013-02-08 15:54:00,33.4,6.1,31.45,SE,135,8.0,15.0,31,0.00,,,0.00,meteohub,2013-02-08 22:54:00,
2013-02-08 15:59:00,33.1,5.7,31.45,East,90,8.0,16.0,31,0.00,,,0.00,meteohub,2013-02-08 22:59:00,
2013-02-08 16:05:00,32.9,6.3,31.46,SE,135,8.0,18.0,32,0.00,,,0.00,meteohub,2013-02-08 23:05:00,
2013-02-08 16:10:00,32.5,6.6,31.45,NE,45,8.0,18.0,33,0.00,,,0.00,meteohub,2013-02-08 23:10:00,
2013-02-08 16:16:00,32.4,7.2,31.45,SW,225,7.0,15.0,34,0.00,,,0.00,meteohub,2013-02-08 23:16:00,
2013-02-08 16:21:00,32.2,7.0,31.45,South,180,4.0,15.0,34,0.00,,,0.00,meteohub,2013-02-08 23:21:00,
2013-02-08 16:27:00,32.2,7.5,31.45,NE,45,4.0,8.0,35,0.00,,,0.00,meteohub,2013-02-08 23:27:00,
2013-02-08 16:32:00,32.2,7.0,31.45,NE,45,4.0,7.0,34,0.00,,,0.00,meteohub,2013-02-08 23:32:00,
2013-02-08 16:37:00,32.0,8.1,31.45,SE,135,6.0,6.0,36,0.00,,,0.00,meteohub,2013-02-08 23:37:00,
2013-02-08 16:42:00,31.8,10.2,31.44,North,0,4.0,8.0,40,0.00,,,0.00,meteohub,2013-02-08 23:42:00,
2013-02-08 16:47:00,31.6,11.1,31.44,East,90,8.0,8.0,42,0.00,,,0.00,meteohub,2013-02-08 23:47:00,
2013-02-08 16:52:00,31.3,11.8,31.44,East,90,7.0,8.0,44,0.00,,,0.00,meteohub,2013-02-08 23:52:00,
2013-02-08 16:57:00,30.9,11.5,31.44,SE,135,8.0,11.0,44,0.00,,,0.00,meteohub,2013-02-08 23:57:00,
2013-02-08 17:02:00,30.7,11.5,31.44,ESE,113,5.0,14.0,44,0.00,,,0.00,meteohub,2013-02-09 00:02:00,
2013-02-08 17:07:00,30.4,11.1,31.44,West,270,11.0,14.0,44,0.00,,,0.00,meteohub,2013-02-09 00:07:00,
2013-02-08 17:13:00,30.4,11.7,31.44,SE,135,9.0,16.0,45,0.00,,,0.00,meteohub,2013-02-09 00:13:00,
2013-02-08 17:18:00,30.2,11.5,31.44,NE,45,7.0,16.0,45,0.00,,,0.00,meteohub,2013-02-09 00:18:00,
2013-02-08 17:24:00,30.0,11.7,31.44,NE,45,9.0,16.0,46,0.00,,,0.00,meteohub,2013-02-09 00:24:00,
2013-02-08 17:29:00,29.8,11.7,31.44,East,90,6.0,14.0,46,0.00,,,0.00,meteohub,2013-02-09 00:29:00,
2013-02-08 17:35:00,29.8,11.7,31.44,SE,135,7.0,10.0,46,0.00,,,0.00,meteohub,2013-02-09 00:35:00,
2013-02-08 17:41:00,29.7,11.5,31.44,South,180,11.0,15.0,46,0.00,,,0.00,meteohub,2013-02-09 00:41:00,
2013-02-08 17:46:00,29.5,11.3,31.44,East,90,10.0,15.0,46,0.00,,,0.00,meteohub,2013-02-09 00:46:00,
2013-02-08 17:52:00,29.5,11.3,31.44,East,90,9.0,15.0,46,0.00,,,0.00,meteohub,2013-02-09 00:52:00,
2013-02-08 17:57:00,29.5,11.3,31.44,South,180,4.0,11.0,46,0.00,,,0.00,meteohub,2013-02-09 00:57:00,
2013-02-08 18:02:00,29.5,11.3,31.44,NE,45,8.0,10.0,46,0.00,,,0.00,meteohub,2013-02-09 01:02:00,
2013-02-08 18:07:00,29.3,11.1,31.44,SSE,158,4.0,13.0,46,0.00,,,0.00,meteohub,2013-02-09 01:07:00,
2013-02-08 18:12:00,29.1,10.9,31.44,NE,45,11.0,13.0,46,0.00,,,0.00,meteohub,2013-02-09 01:12:00,
2013-02-08 18:17:00,29.1,10.9,31.44,SSE,158,5.0,11.0,46,0.00,,,0.00,meteohub,2013-02-09 01:17:00,
2013-02-08 18:22:00,29.3,11.1,31.44,SE,135,9.0,11.0,46,0.00,,,0.00,meteohub,2013-02-09 01:22:00,
2013-02-08 18:27:00,29.3,11.1,31.44,SSW,203,2.0,11.0,46,0.00,,,0.00,meteohub,2013-02-09 01:27:00,
2013-02-08 18:32:00,29.1,10.9,31.44,ENE,68,4.0,10.0,46,0.00,,,0.00,meteohub,2013-02-09 01:32:00,
2013-02-08 18:37:00,29.1,10.9,31.44,SE,135,3.0,10.0,46,0.00,,,0.00,meteohub,2013-02-09 01:37:00,
2013-02-08 18:42:00,29.1,10.9,31.44,East,90,3.0,8.0,46,0.00,,,0.00,meteohub,2013-02-09 01:42:00,
2013-02-08 18:47:00,29.3,10.6,31.44,West,270,4.0,6.0,45,0.00,,,0.00,meteohub,2013-02-09 01:47:00,
2013-02-08 18:52:00,29.3,10.6,31.44,East,90,7.0,8.0,45,0.00,,,0.00,meteohub,2013-02-09 01:52:00,
2013-02-08 18:57:00,29.5,10.8,31.44,SW,225,6.0,9.0,45,0.00,,,0.00,meteohub,2013-02-09 01:57:00,
2013-02-08 19:03:00,29.5,10.8,31.44,SE,135,9.0,9.0,45,0.00,,,0.00,meteohub,2013-02-09 02:03:00,
2013-02-08 19:08:00,29.7,10.9,31.44,NW,315,6.0,9.0,45,0.00,,,0.00,meteohub,2013-02-09 02:08:00,
2013-02-08 19:14:00,29.5,11.3,31.44,East,90,6.0,9.0,46,0.00,,,0.00,meteohub,2013-02-09 02:14:00,
2013-02-08 19:19:00,29.5,11.3,31.44,East,90,5.0,10.0,46,0.00,,,0.00,meteohub,2013-02-09 02:19:00,
2013-02-08 19:24:00,29.3,11.1,31.43,East,90,4.0,10.0,46,0.00,,,0.00,meteohub,2013-02-09 02:24:00,
2013-02-08 19:30:00,29.3,11.1,31.44,SE,135,4.0,7.0,46,0.00,,,0.00,meteohub,2013-02-09 02:30:00,
2013-02-08 19:35:00,29.3,11.1,31.44,NE,45,6.0,8.0,46,0.00,,,0.00,meteohub,2013-02-09 02:35:00,
2013-02-08 19:40:00,29.1,10.9,31.44,East,90,5.0,8.0,46,0.00,,,0.00,meteohub,2013-02-09 02:40:00,
2013-02-08 19:46:00,28.8,10.6,31.43,ENE,68,13.0,13.0,46,0.00,,,0.00,meteohub,2013-02-09 02:46:00,
2013-02-08 19:51:00,28.6,11.3,31.43,SE,135,9.0,13.0,48,0.00,,,0.00,meteohub,2013-02-09 02:51:00,
2013-02-08 19:57:00,28.2,10.0,31.43,South,180,14.0,14.0,46,0.00,,,0.00,meteohub,2013-02-09 02:57:00,
2013-02-08 20:02:00,28.2,10.6,31.44,SE,135,9.0,14.0,47,0.00,,,0.00,meteohub,2013-02-09 03:02:00,
2013-02-08 20:07:00,28.0,11.3,31.43,East,90,8.0,15.0,49,0.00,,,0.00,meteohub,2013-02-09 03:07:00,
2013-02-08 20:12:00,27.9,11.7,31.43,East,90,5.0,17.0,50,0.00,,,0.00,meteohub,2013-02-09 03:12:00,
2013-02-08 20:17:00,27.7,11.8,31.43,NE,45,8.0,17.0,51,0.00,,,0.00,meteohub,2013-02-09 03:17:00,
2013-02-08 20:22:00,27.3,12.0,31.43,ESE,113,17.0,17.0,52,0.00,,,0.00,meteohub,2013-02-09 03:22:00,
2013-02-08 20:27:00,27.1,11.8,31.43,SE,135,8.0,17.0,52,0.00,,,0.00,meteohub,2013-02-09 03:27:00,
2013-02-08 20:32:00,27.0,12.0,31.43,SE,135,9.0,17.0,53,0.00,,,0.00,meteohub,2013-02-09 03:32:00,
2013-02-08 20:37:00,27.0,12.0,31.43,SE,135,8.0,17.0,53,0.00,,,0.00,meteohub,2013-02-09 03:37:00,
2013-02-08 20:42:00,26.8,12.4,31.43,SE,135,8.0,17.0,54,0.00,,,0.00,meteohub,2013-02-09 03:42:00,
2013-02-08 20:47:00,26.6,12.2,31.43,East,90,5.0,17.0,54,0.00,,,0.00,meteohub,2013-02-09 03:47:00,
2013-02-08 20:52:00,26.6,12.6,31.42,SE,135,10.0,17.0,55,0.00,,,0.00,meteohub,2013-02-09 03:52:00,
2013-02-08 20:58:00,26.4,13.6,31.42,South,180,8.0,17.0,58,0.00,,,0.00,meteohub,2013-02-09 03:58:00,
2013-02-08 21:03:00,26.4,13.6,31.43,SSE,158,14.0,14.0,58,0.00,,,0.00,meteohub,2013-02-09 04:03:00,
2013-02-08 21:08:00,26.2,13.8,31.43,East,90,9.0,14.0,59,0.00,,,0.00,meteohub,2013-02-09 04:08:00,
2013-02-08 21:14:00,26.1,14.0,31.43,East,90,11.0,14.0,60,0.00,,,0.00,meteohub,2013-02-09 04:14:00,
2013-02-08 21:20:00,26.1,14.5,31.43,SE,135,11.0,16.0,61,0.00,,,0.00,meteohub,2013-02-09 04:20:00,
2013-02-08 21:25:00,25.9,14.7,31.43,South,180,14.0,16.0,62,0.00,,,0.00,meteohub,2013-02-09 04:25:00,
2013-02-08 21:30:00,25.7,14.9,31.43,SE,135,8.0,16.0,63,0.00,,,0.00,meteohub,2013-02-09 04:30:00,
2013-02-08 21:35:00,25.5,14.7,31.42,ESE,113,7.0,15.0,63,0.00,,,0.00,meteohub,2013-02-09 04:35:00,
2013-02-08 21:41:00,25.5,14.7,31.42,East,90,9.0,15.0,63,0.00,,,0.00,meteohub,2013-02-09 04:41:00,
2013-02-08 21:46:00,25.5,14.7,31.43,East,90,8.0,13.0,63,0.00,,,0.00,meteohub,2013-02-09 04:46:00,
2013-02-08 21:52:00,25.5,14.7,31.42,East,90,6.0,13.0,63,0.00,,,0.00,meteohub,2013-02-09 04:52:00,
2013-02-08 21:57:00,25.5,14.7,31.42,East,90,7.0,13.0,63,0.00,,,0.00,meteohub,2013-02-09 04:57:00,
2013-02-08 22:00:00,25.5,14.7,31.42,East,90,15.0,15.0,63,0.00,,,0.00,meteohub,2013-02-09 05:00:00,
2013-02-08 22:02:00,25.5,14.7,31.42,East,90,8.0,15.0,63,0.00,,,0.00,meteohub,2013-02-09 05:02:00,
2013-02-08 22:03:00,25.5,14.7,31.42,NE,45,8.0,15.0,63,0.00,,,0.00,meteohub,2013-02-09 05:03:00,
2013-02-08 22:05:00,25.3,14.5,31.42,SE,135,9.0,17.0,63,0.00,,,0.00,meteohub,2013-02-09 05:05:00,
2013-02-08 22:11:00,25.2,14.7,31.43,SE,135,8.0,17.0,64,0.00,,,0.00,meteohub,2013-02-09 05:11:00,
2013-02-08 22:17:00,25.0,14.9,31.43,East,90,4.0,17.0,65,0.00,,,0.00,meteohub,2013-02-09 05:17:00,
2013-02-08 22:22:00,24.8,15.1,31.43,ENE,68,7.0,15.0,66,0.00,,,0.00,meteohub,2013-02-09 05:22:00,
2013-02-08 22:27:00,24.6,15.6,31.43,SE,135,5.0,15.0,68,0.00,,,0.00,meteohub,2013-02-09 05:27:00,
2013-02-08 22:32:00,24.4,15.4,31.42,SSW,203,4.0,15.0,68,0.00,,,0.00,meteohub,2013-02-09 05:32:00,
2013-02-08 22:37:00,24.4,15.8,31.42,ESE,113,9.0,14.0,69,0.00,,,0.00,meteohub,2013-02-09 05:37:00,
2013-02-08 22:42:00,24.1,16.0,31.42,SW,225,7.0,11.0,71,0.00,,,0.00,meteohub,2013-02-09 05:42:00,
2013-02-08 22:47:00,23.9,16.5,31.42,East,90,12.0,14.0,73,0.00,,,0.00,meteohub,2013-02-09 05:47:00,
2013-02-08 22:52:00,23.9,16.9,31.42,East,90,4.0,14.0,74,0.00,,,0.00,meteohub,2013-02-09 05:52:00,
2013-02-08 22:57:00,23.7,16.7,31.42,East,90,4.0,14.0,74,0.00,,,0.00,meteohub,2013-02-09 05:57:00,
2013-02-08 23:02:00,23.7,16.7,31.42,SE,135,6.0,12.0,74,0.00,,,0.00,meteohub,2013-02-09 06:02:00,
2013-02-08 23:07:00,23.7,16.7,31.41,SE,135,6.0,11.0,74,0.00,,,0.00,meteohub,2013-02-09 06:07:00,
2013-02-08 23:12:00,23.9,16.9,31.42,ESE,113,6.0,11.0,74,0.00,,,0.00,meteohub,2013-02-09 06:12:00,
2013-02-08 23:17:00,23.9,16.9,31.41,East,90,10.0,11.0,74,0.00,,,0.00,meteohub,2013-02-09 06:17:00,
2013-02-08 23:22:00,23.9,16.9,31.41,East,90,11.0,14.0,74,0.00,,,0.00,meteohub,2013-02-09 06:22:00,
2013-02-08 23:28:00,23.9,16.9,31.42,SE,135,9.0,14.0,74,0.00,,,0.00,meteohub,2013-02-09 06:28:00,
2013-02-08 23:33:00,23.9,16.9,31.42,South,180,7.0,13.0,74,0.00,,,0.00,meteohub,2013-02-09 06:33:00,
2013-02-08 23:38:00,23.7,16.7,31.41,East,90,6.0,11.0,74,0.00,,,0.00,meteohub,2013-02-09 06:38:00,
2013-02-08 23:44:00,23.5,16.5,31.41,SE,135,12.0,12.0,74,0.00,,,0.00,meteohub,2013-02-09 06:44:00,
2013-02-08 23:50:00,23.4,16.7,31.42,East,90,14.0,14.0,75,0.00,,,0.00,meteohub,2013-02-09 06:50:00,
2013-02-08 23:55:00,23.4,16.9,31.42,South,180,7.0,15.0,76,0.00,,,0.00,meteohub,2013-02-09 06:55:00,